Voltar ao catálogo

DMSP 5D-2 F13 DEB

AtivoPO
NORAD 40564·DEBRIS·🇺🇸 United States

Lançado Mar 24, 1995 de Vandenberg Space Force Base

Loading…

Próximas Passagens (próximas 24 horas)

TLE

AtualizadoSource: Space-Track

Época: Sep 14, 2026, 12:52 UTC

1 40564U 95015DX  26257.53654869  .00075490  00000-0  46176-2 0  9998
2 40564  98.6240   9.7888 0006235 187.3303 172.7833 15.09884414600462

Acompanhe DMSP 5D-2 F13 DEB em tempo real com AllMySat

Download on the App Store